EHI
0 0 0 0 0 0 0 0 0 0 0 0 0 0 0 0 0 0 0 0 0 0 0 0 0 2 7 13 16 19 26 36 49 59 57 43 24 8 1 0 0 0 0 0
0 0 0 0 0 0 0 0 0 0 0 0 0 0 0 0 0 0 0 0 0 0 0 0 1 3 9 18 24 30 39 49 63 74 72 54 30 13 5 1 0 0 0 0
0 0 0 0 0 0 0 0 0 0 0 0 0 0 0 0 0 0 0 0 0 0 0 2 6 12 22 33 42 50 60 70 81 89 87 70 44 23 11 3 0 0 0 0
0 0 0 0 0 0 0 0 0 0 0 0 0 0 0 0 0 0 0 0 0 0 2 9 22 35 48 58 63 68 76 83 87 89 86 74 52 29 12 3 0 0 1 1
0 0 0 0 0 0 0 0 0 0 0 0 0 0 0 0 0 0 0 0 0 1 7 21 42 58 67 71 73 74 74 72 71 69 65 57 42 23 8 2 0 0 0 0
0 0 0 0 0 0 0 0 0 0 0 0 0 0 0 0 0 0 0 0 1 4 13 30 50 63 66 66 65 61 54 46 39 36 33 29 22 12 4 0 0 0 0 0
0 0 0 0 0 0 0 0 0 0 0 0 0 0 0 0 0 0 0 0 1 5 13 28 44 53 53 51 47 38 29 20 14 11 10 9 7 5 2 0 0 0 0 0
0 0 0 0 0 0 0 0 0 0 0 0 0 0 0 0 0 0 0 0 1 3 7 16 27 34 33 29 25 18 10 6 4 3 2 1 1 1 0 0 0 0 0 0
0 0 0 0 0 0 0 0 0 0 0 0 0 0 0 0 0 0 0 0 1 1 2 5 11 15 13 10 8 5 2 1 2 2 1 0 0 0 0 0 0 0 0 0
0 0 0 0 0 0 0 0 0 0 0 0 0 0 0 0 0 0 0 0 0 0 0 1 3 4 3 2 2 1 0 0 2 2 1 0 0 0 0 0 0 0 0 0
0 0 0 0 0 0 0 0 0 0 0 0 0 0 0 0 0 0 0 0 0 0 0 0 1 1 1 1 1 0 0 1 2 2 1 0 0 0 0 0 0 0 0 0
0 0 0 0 0 0 0 0 0 0 0 0 0 0 0 0 0 0 0 0 0 0 0 0 0 0 0 0 0 1 2 3 3 2 1 0 0 0 0 0 0 0 0 0
0 0 0 0 0 0 0 0 0 0 0 0 0 0 0 0 0 0 0 0 0 0 0 0 0 0 0 0 0 2 6 8 6 2 0 0 0 0 0 0 0 0 0 0
0 0 0 0 0 0 0 0 0 0 0 0 0 0 0 0 0 0 0 0 0 1 1 0 0 1 1 0 0 2 7 10 8 3 0 0 0 0 0 0 0 0 0 0
0 0 0 0 0 0 0 0 0 0 0 0 0 0 0 0 0 0 0 0 0 1 1 0 0 1 1 0 0 1 5 8 9 5 2 2 1 0 0 0 0 0 0 0
0 0 0 0 0 0 0 0 0 0 0 0 0 0 0 0 0 0 0 0 0 1 1 0 0 1 1 0 0 1 2 5 6 5 4 3 2 0 0 0 0 0 0 0
0 0 0 0 0 0 0 0 0 0 0 0 0 0 0 0 0 0 0 0 0 0 0 0 0 0 0 0 0 0 1 2 2 2 2 2 1 0 0 0 0 0 0 0
0 0 0 0 0 0 0 0 0 0 0 0 0 0 0 0 0 0 0 0 0 0 0 0 0 0 0 0 0 0 0 0 0 0 0 0 0 0 0 0 0 0 0 0
0 0 0 0 0 0 0 0 0 0 0 0 0 0 0 0 0 0 0 0 0 0 0 0 0 0 0 0 0 0 0 0 0 0 0 0 0 0 0 0 1 0 0 0
0 0 0 0 0 0 0 0 0 0 0 0 0 0 0 0 0 0 0 0 0 0 0 0 0 0 0 0 0 0 0 0 0 0 0 0 0 0 0 0 0 0 0 0
0 0 0 0 0 0 0 0 0 0 0 0 0 0 0 0 0 0 0 0 0 0 0 0 0 0 0 0 0 0 0 0 0 0 0 0 0 0 0 0 0 0 0 0
0 0 0 0 0 0 0 0 0 0 0 0 0 0 0 0 0 0 0 0 0 0 0 0 0 0 0 0 0 0 0 0 0 0 0 0 0 0 0 0 0 0 0 0
0 0 0 0 0 0 0 0 0 0 0 0 0 0 0 0 0 0 0 0 0 0 0 0 0 0 0 0 0 0 0 0 0 0 0 0 0 0 0 0 0 0 0 0
0 0 0 0 0 0 0 0 0 0 0 0 0 0 0 0 0 0 0 0 0 0 0 0 0 0 0 0 0 0 0 0 0 0 0 0 0 0 0 0 0 0 0 0
0 0 0 0 0 0 0 0 0 0 0 0 0 0 0 0 0 0 0 0 0 0 0 0 0 0 0 0 0 0 0 0 0 0 0 0 0 0 0 0 0 0 0 0
0 0 0 0 0 0 0 0 0 0 0 0 0 0 0 0 0 0 0 0 0 0 0 0 0 0 0 0 0 0 0 0 0 0 0 0 0 0 0 0 0 0 0 0
Wind_Speed
1 3 0 3 4 4 3 2 4 4 3 3 4 7 8 6 4 5 6 7 7 7 8 7 11 15 16 14 14 13 11 11 9 7 6 5 5 4 3 4 5 5 5 5
4 1 5 5 4 3 2 2 4 4 4 3 5 9 9 7 6 6 7 8 9 8 6 5 7 11 14 14 13 12 11 11 10 7 6 4 4 3 3 3 4 5 5 5
3 6 4 3 3 2 3 3 4 4 4 3 5 8 7 6 5 6 7 8 8 8 7 5 6 9 11 11 12 10 10 9 8 7 5 4 3 2 1 2 3 5 5 5
3 4 2 3 5 4 4 5 4 1 1 4 2 6 9 7 9 10 9 7 6 6 5 6 8 9 10 9 9 9 9 9 8 8 7 7 5 4 5 4 3 4 4 5
5 3 2 4 6 5 6 3 2 1 1 2 2 3 8 7 10 13 13 12 7 4 6 8 11 12 11 11 10 8 9 8 7 7 7 6 4 3 2 2 3 4 4 4
5 3 1 3 4 0 2 4 4 4 4 2 4 3 5 7 11 15 17 17 14 7 4 8 9 12 11 9 9 7 8 6 6 7 6 6 6 4 3 3 3 3 2 3
9 7 5 7 9 8 5 5 4 5 3 5 3 2 1 7 11 13 15 17 16 11 5 6 8 10 10 10 9 7 7 6 6 6 5 5 5 5 5 4 4 3 2 2
7 7 7 8 5 4 4 3 4 4 4 4 3 1 2 6 9 12 13 13 17 17 12 7 4 6 9 10 10 9 8 6 5 5 4 4 4 3 3 4 3 3 3 2
4 6 7 9 8 6 6 3 2 3 2 2 3 1 2 11 14 16 16 17 17 14 13 10 7 3 2 5 7 7 7 6 5 4 3 3 4 4 3 3 3 2 2 2
2 5 6 7 8 8 4 3 4 3 0 2 2 3 6 13 15 15 15 15 14 13 11 9 5 4 3 2 3 5 6 6 5 5 4 4 4 5 4 4 3 3 2 2
4 2 7 7 5 5 6 5 3 1 1 1 0 3 6 10 12 12 12 12 11 10 8 6 4 5 6 3 1 3 5 5 5 5 4 5 4 4 4 4 4 4 3 3
3 3 3 5 4 3 3 2 1 1 0 0 1 1 7 10 11 10 10 10 11 10 8 6 4 5 6 5 2 4 5 5 4 4 4 4 4 4 4 4 4 4 4 4
3 5 5 8 7 6 4 5 2 2 2 1 1 1 6 9 11 11 11 10 10 10 9 7 4 6 7 4 3 4 4 5 4 4 4 4 3 3 3 4 4 4 4 4
4 3 2 3 6 4 5 9 9 1 1 2 3 4 10 14 14 14 12 10 9 10 10 8 5 5 5 4 3 3 4 4 4 4 4 3 2 2 3 3 3 4 4 5
4 2 2 3 7 10 13 14 14 9 6 4 6 7 12 13 12 11 12 12 13 13 12 11 9 7 6 6 5 3 1 1 2 3 2 2 1 1 2 3 3 4 4 5
5 3 3 4 8 12 15 18 15 11 10 9 9 9 13 13 10 11 13 14 14 13 12 11 10 9 9 8 8 7 7 5 5 6 4 2 1 1 2 3 3 3 3 3
4 2 3 3 1 4 11 12 11 8 10 9 9 9 14 15 13 11 11 13 12 11 11 10 9 8 8 8 8 9 8 8 8 7 5 3 2 2 2 1 1 1 2 2
1 2 2 2 4 6 2 4 5 5 7 10 8 10 13 14 12 6 8 11 11 10 9 8 7 6 6 6 7 7 8 8 7 7 6 5 4 3 3 3 3 2 1 1
4 3 4 3 3 2 3 3 3 3 2 6 9 12 14 15 8 5 11 13 10 7 5 4 4 4 5 6 6 7 7 6 6 6 5 5 4 4 4 4 4 2 2 1
7 7 5 4 3 1 4 6 3 2 1 4 7 10 12 12 8 8 15 15 12 8 4 4 4 5 5 4 5 7 6 5 5 4 4 4 4 4 4 4 3 2 2 2
6 6 5 4 2 1 4 6 3 2 4 8 6 7 7 5 5 11 15 13 9 6 3 2 3 3 2 2 4 5 4 4 3 3 4 4 4 4 4 4 3 3 3 3
2 2 2 2 2 3 3 2 2 3 4 5 6 6 7 8 10 10 11 11 9 6 4 1 1 1 1 1 3 4 4 3 2 3 4 4 5 5 5 5 5 5 5 4
3 5 4 4 4 4 2 2 3 4 4 5 5 7 8 8 9 10 10 10 8 6 5 2 1 1 1 1 1 2 3 3 3 3 3 3 4 5 5 6 6 5 6 5
2 2 3 1 2 3 2 2 3 3 5 6 7 8 7 7 9 10 10 9 8 6 5 3 1 1 2 2 0 1 2 3 4 3 2 2 3 4 5 5 5 5 6 6
6 3 3 2 2 1 2 3 4 5 6 6 7 6 6 7 8 7 7 9 8 6 5 3 1 1 2 2 1 1 2 4 4 2 1 1 2 2 3 4 5 5 5 5
5 7 7 6 6 5 5 5 4 4 5 5 5 6 7 6 7 7 7 7 7 7 5 4 3 2 3 3 3 2 1 3 3 2 1 0 0 1 1 2 3 5 5 8
Wind_Direction
177 84 200 222 190 191 200 241 272 268 285 319 292 286 287 292 306 307 310 307 288 258 249 226 194 183 179 178 179 178 173 171 162 160 162 164 179 184 189 194 192 190 187 184
38 258 225 204 188 176 195 261 274 275 293 301 284 280 273 260 246 249 269 277 279 275 270 253 190 176 176 176 177 176 173 168 165 165 162 157 150 167 187 193 193 197 193 190
210 241 226 202 221 234 245 232 244 264 318 335 324 304 298 294 294 285 265 252 256 253 237 211 174 167 162 164 168 167 159 151 148 144 126 109 94 90 136 204 210 209 200 195
265 252 227 227 240 211 246 232 209 231 9 305 1 300 300 320 332 330 319 286 251 243 216 167 145 135 131 129 126 129 129 131 136 140 148 153 162 175 197 197 207 214 204 199
288 264 245 250 247 208 217 210 171 173 167 307 292 235 294 349 348 342 343 338 319 259 178 150 137 126 118 116 114 117 117 122 131 137 148 151 154 174 178 184 202 213 211 207
280 298 28 296 304 77 119 60 42 53 74 303 253 198 310 0 345 345 353 356 355 351 117 125 119 116 112 111 113 116 120 128 137 139 146 154 162 170 174 193 207 214 205 203
340 345 17 20 13 3 24 66 16 348 360 257 259 169 39 1 6 1 0 1 1 9 44 102 117 121 123 124 126 135 143 144 148 146 156 170 175 177 189 200 203 199 199 206
12 327 358 11 8 311 301 148 179 227 236 281 314 200 107 359 359 4 9 11 16 17 15 23 82 117 133 144 150 157 156 155 157 159 175 187 181 171 189 199 188 189 195 208
6 301 337 7 9 7 348 349 232 185 226 254 281 6 47 359 1 4 6 10 12 8 10 11 11 23 144 153 157 160 157 155 163 164 167 178 168 163 170 168 163 170 183 182
49 302 319 350 22 25 25 9 37 62 217 246 308 39 359 347 343 345 354 359 355 354 1 1 358 324 292 215 179 166 161 167 168 160 157 158 161 163 160 148 154 158 158 140
55 22 327 358 12 0 19 28 29 95 134 186 326 54 354 327 322 327 339 341 337 339 333 323 325 302 296 292 232 194 173 172 172 166 161 156 162 161 154 154 168 166 160 157
17 87 330 312 317 11 60 48 66 108 4 44 125 49 332 316 316 325 329 332 335 327 314 296 267 261 270 273 251 215 192 184 183 166 161 173 169 161 165 173 182 179 175 177
22 66 4 341 341 355 25 6 348 180 155 157 137 66 331 327 339 346 344 344 345 349 339 321 305 268 265 277 265 233 206 197 182 166 164 177 171 170 188 195 197 194 189 191
76 80 113 303 309 343 18 11 6 35 126 107 82 52 360 356 355 357 1 3 7 8 6 358 341 314 300 320 315 262 220 201 176 166 161 164 156 200 221 224 212 206 199 199
68 33 344 55 72 70 47 29 23 31 29 72 77 45 8 353 351 0 13 19 23 20 18 18 15 13 17 19 14 4 358 106 140 121 98 77 84 242 239 230 225 221 212 210
31 10 11 71 93 73 47 25 20 25 29 45 48 29 353 346 354 10 13 15 18 14 16 19 24 29 30 32 35 39 43 54 83 84 71 74 81 297 272 257 246 237 236 230
353 11 35 12 10 54 33 3 5 20 29 24 27 355 340 345 350 1 6 6 11 9 11 16 22 29 34 37 45 47 46 53 62 70 68 53 50 19 335 319 328 286 266 244
358 28 83 42 41 56 314 283 321 352 43 27 5 348 345 336 317 321 7 0 355 360 8 12 21 35 43 50 55 53 50 56 59 56 51 41 40 29 12 14 6 348 327 272
58 81 70 64 75 91 324 330 336 333 1 15 351 345 345 339 335 342 352 349 341 345 356 9 27 50 49 46 52 59 53 52 53 45 39 30 31 32 25 15 356 341 332 315
40 56 71 59 81 54 296 304 300 215 294 357 339 335 340 353 11 330 327 330 332 338 350 16 33 49 50 39 51 56 44 42 40 35 33 28 33 37 22 2 346 335 327 312
15 22 43 55 82 281 272 302 352 64 299 309 307 309 322 330 275 285 308 317 321 324 333 19 51 52 38 42 59 50 29 11 353 22 36 32 28 28 18 3 355 351 356 6
102 64 33 61 49 281 294 17 41 252 266 282 287 291 297 296 295 304 314 320 323 322 320 344 38 19 348 47 68 42 3 334 354 39 45 34 25 22 21 17 12 12 17 23
153 178 180 178 209 232 220 199 235 236 268 276 278 288 294 300 305 314 316 320 317 313 307 302 270 277 312 338 80 29 335 347 44 65 58 41 35 31 28 29 23 19 18 21
244 157 121 135 232 209 203 249 271 263 264 273 278 286 292 297 304 313 319 325 325 318 312 306 308 264 275 291 276 324 346 34 75 81 74 51 49 40 35 33 29 30 21 17
205 155 139 201 233 211 285 282 281 289 288 288 293 290 293 301 308 310 318 325 326 321 313 308 282 242 229 219 234 292 50 79 86 86 74 56 62 71 57 50 38 31 28 18
195 167 167 205 212 190 242 261 276 292 300 304 309 313 315 314 311 317 320 321 324 321 318 313 294 256 224 208 221 240 117 115 113 94 61 9 55 99 112 93 61 36 35 34